Regional Weather Roundup
Issued by NWS

Home | Current Version | Previous Version | Graphics & Text | Print | Product List | Glossary On
Versions: 1 2 3 4 5 6 7 8 9 10 11 12 13 14 15 16 17 18 19 20 21 22 23 24 25 26 27 28 29 30 31 32 33 34 35 36 37 38 39 40 41 42 43 44 45 46 47 48 49 50
000
ASUS43 KFSD 162202
RWRSD

WEATHER ROUNDUP FOR SOUTH DAKOTA
NATIONAL WEATHER SERVICE SIOUX FALLS SD
400 PM CST TUE JAN 16 2018

NOTE: "FAIR" INDICATES FEW OR NO CLOUDS BELOW 12,000 FEET WITH NO
SIGNIFICANT WEATHER AND/OR OBSTRUCTIONS TO VISIBILITY.


SDZ001>005-009-010-012>017-162300-
NORTHWEST AND NORTH CENTRAL SOUTH DAKOTA

CITY           SKY/WX    TMP DP  RH WIND       PRES   REMARKS
FAITH            N/A     13   3  64 S21       30.34F WCI  -5
MOBRIDGE       SUNNY     15  -3  44 S14       30.44F WCI   0
$$

SDZ012>016-024>037-041>051-057-063-072>074-162300-
SOUTHWEST AND SOUTH CENTRAL SOUTH DAKOTA

CITY           SKY/WX    TMP DP  RH WIND       PRES   REMARKS
RAPID CTY ARPT SUNNY     27   8  44 SE13      30.30F WCI  16
PIERRE         SUNNY     16   1  51 S13       30.50F WCI   2
CUSTER         SUNNY     32 -18  11 W13       30.22F WCI  22
ELLSWORTH AFB  SUNNY     27   7  42 S14G20    30.27F WCI  15
PHILIP         SUNNY     21   6  52 S10       30.42F WCI  10
PINE RIDGE     SUNNY     26   3  37 S14       30.36F WCI  14
SPEARFISH        N/A     30   7  37 CALM      30.24F
WINNER         FAIR      17   3  54 S10       30.52F WCI   5
$$

SDZ004>011-016>023-039-040-162300-
NORTHEAST SOUTH DAKOTA

CITY           SKY/WX    TMP DP  RH WIND       PRES   REMARKS
ABERDEEN       MOSUNNY   12  -2  53 S12       30.58F WCI  -2
WATERTOWN      CLEAR      7   0  73 SW10      30.55F WCI  -8
BROOKINGS      SUNNY      9   0  67 W7        30.58F WCI  -2
$$

SDZ017-020-022-023-036>040-048>070-162300-
SOUTHEAST SOUTH DAKOTA

CITY           SKY/WX    TMP DP  RH WIND       PRES   REMARKS
SIOUX FALLS    SUNNY      6   0  76 W7        30.63F WCI  -6
HURON          SUNNY      9  -1  64 S9        30.61F WCI  -4
CHAMBERLAIN    SUNNY     15   3  58 S10       30.57F WCI   2
MITCHELL       SUNNY      8  -2  63 S8        30.65F WCI  -4
YANKTON        SUNNY      9  -1  64 W7        30.67F WCI  -2
$$

ABBREVIATIONS USED IN REMARKS
   TC - TEMPERATURE IN CELSIUS
  WCI - WIND CHILL INDEX
   HX - HEAT INDEX
  VSB - VISIBILITY





USA.gov is the U.S. government's official web portal to all federal, state and local government web resources and services.